SCP
0 0 0 0 0 0 0 0 0 0 0 0 0 0 0 0 0 0 0 0 0 0
0 0 0 0 0 0 0 0 0 0 0 0 0 0 0 0 0 0 0 0 0 0
0 0 0 0 0 0 0 0 0 0 0 0 0 0 0 0 0 0 0 0 0 0
0 0 0 0 0 0 0 0 0 0 0 0 0 0 0 0 0 0 0 0 0 0
0 0 0 0 0 0 0 0 0 0 0 0 0 0 0 0 0 0 0 0 0 0
0 0 0 0 0 0 0 0 0 0 0 0 0 0 0 0 0 0 0 0 0 0
0 0 0 0 0 0 0 0 0 0 0 0 0 0 0 0 0 0 -0 0 0 0
0 0 0 0 0 0 0 0 0 0 0 0 0 0 0 0 0 0 0 0 0 0
0 0 0 0 0 0 0 0 0 0 0 0 0 0 -0 0 0 0 0 0 0 0
0 0 0 0 0 0 0 0 0 0 0 0 0 -0 0 0 0 0 0 0 -0 0
0 0 0 0 0 0 0 0 0 0 0 0 0 0 0 0 0 0 0 0 -0 -0
0 0 0 0 0 0 0 0 0 0 0 0 0 0 0 0 0 0 0 -0 -0 -0
0 0 0 0 0 0 0 0 0 0 0 0 0 0 0 0 0 0 0 0 0 -0
0 0 0 0 0 0 0 0 0 0 0 0 0 0 0 0 0 0 0 0 0 0
Wind_Speed_500mb
45 49 57 62 64 65 57 53 47 41 37 34 34 35 38 44 46 50 51 54 55 57
42 50 57 60 58 55 49 48 46 41 38 37 37 38 40 46 49 50 51 55 58 60
44 51 57 57 53 46 45 44 42 42 42 43 43 42 41 45 48 50 51 55 58 59
44 52 53 51 47 41 38 36 38 42 43 44 45 40 40 42 48 52 54 55 57 62
46 51 49 44 38 35 36 36 36 40 42 45 43 42 42 45 47 51 55 57 60 60
46 47 43 38 34 33 34 35 35 38 42 43 44 45 45 48 45 48 51 54 58 61
42 43 38 32 30 30 29 31 35 35 35 38 40 41 42 40 43 45 44 48 55 56
35 32 35 31 30 28 27 29 32 31 32 33 35 31 31 40 41 41 44 47 44 44
24 25 28 30 26 26 25 26 28 28 31 32 27 25 29 32 31 32 36 42 44 45
18 22 24 28 23 25 25 24 26 30 30 26 22 29 25 25 26 27 28 31 34 34
24 25 21 23 21 21 24 25 26 27 28 23 21 26 25 21 22 21 21 22 23 23
29 29 23 23 18 19 20 21 23 23 22 25 25 26 25 22 24 29 35 37 39 34
27 26 21 23 19 17 17 18 16 15 14 17 18 20 18 17 19 24 28 34 43 45
26 24 20 22 17 15 16 9 13 14 18 15 14 17 18 19 22 28 29 35 42 46
Wind_Direction_500mb
301 303 307 311 310 306 304 305 307 304 301 298 293 291 293 290 286 281 277 274 275 269
303 309 312 312 308 305 306 308 309 306 301 298 292 291 287 284 284 285 281 274 270 271
312 314 313 311 308 306 305 308 310 308 304 301 298 293 290 287 287 287 283 281 276 272
315 317 316 311 307 306 308 310 306 305 302 298 294 295 292 287 285 282 279 277 273 272
320 322 318 314 314 312 307 305 305 302 300 298 294 292 291 288 287 286 284 279 272 271
329 327 326 325 319 316 315 309 304 300 299 301 298 294 293 294 295 291 290 287 282 276
334 332 327 333 326 324 324 321 314 312 313 313 309 302 298 297 292 292 293 292 285 277
334 333 334 341 339 333 328 328 327 325 324 322 316 314 315 303 301 298 294 294 291 284
330 342 343 338 341 343 336 341 347 346 336 330 334 332 317 313 307 301 298 296 293 292
305 338 349 340 349 355 349 357 3 356 348 344 345 343 337 329 326 319 313 310 302 297
275 307 325 340 353 1 0 0 3 358 355 359 8 4 355 353 350 346 346 349 350 330
276 288 307 297 336 6 3 2 0 359 8 23 22 32 27 33 44 45 42 38 37 24
277 282 294 307 299 305 334 355 3 11 30 32 28 42 39 43 38 45 43 40 44 38
274 277 288 291 297 311 294 305 320 346 4 3 20 36 36 37 35 31 33 42 42 40
Wind_Speed_850mb
45 49 57 62 64 65 57 53 47 41 37 34 34 35 38 44 46 50 51 54 55 57
42 50 57 60 58 55 49 48 46 41 38 37 37 38 40 46 49 50 51 55 58 60
44 51 57 57 53 46 45 44 42 42 42 43 43 42 41 45 48 50 51 55 58 59
44 52 53 51 47 41 38 36 38 42 43 44 45 40 40 42 48 52 54 55 57 62
46 51 49 44 38 35 36 36 36 40 42 45 43 42 42 45 47 51 55 57 60 60
46 47 43 38 34 33 34 35 35 38 42 43 44 45 45 48 45 48 51 54 58 61
42 43 38 32 30 30 29 31 35 35 35 38 40 41 42 40 43 45 44 48 55 56
35 32 35 31 30 28 27 29 32 31 32 33 35 31 31 40 41 41 44 47 44 44
24 25 28 30 26 26 25 26 28 28 31 32 27 25 29 32 31 32 36 42 44 45
18 22 24 28 23 25 25 24 26 30 30 26 22 29 25 25 26 27 28 31 34 34
24 25 21 23 21 21 24 25 26 27 28 23 21 26 25 21 22 21 21 22 23 23
29 29 23 23 18 19 20 21 23 23 22 25 25 26 25 22 24 29 35 37 39 34
27 26 21 23 19 17 17 18 16 15 14 17 18 20 18 17 19 24 28 34 43 45
26 24 20 22 17 15 16 9 13 14 18 15 14 17 18 19 22 28 29 35 42 46
Wind_Direction_850mb
301 303 307 311 310 306 304 305 307 304 301 298 293 291 293 290 286 281 277 274 275 269
303 309 312 312 308 305 306 308 309 306 301 298 292 291 287 284 284 285 281 274 270 271
312 314 313 311 308 306 305 308 310 308 304 301 298 293 290 287 287 287 283 281 276 272
315 317 316 311 307 306 308 310 306 305 302 298 294 295 292 287 285 282 279 277 273 272
320 322 318 314 314 312 307 305 305 302 300 298 294 292 291 288 287 286 284 279 272 271
329 327 326 325 319 316 315 309 304 300 299 301 298 294 293 294 295 291 290 287 282 276
334 332 327 333 326 324 324 321 314 312 313 313 309 302 298 297 292 292 293 292 285 277
334 333 334 341 339 333 328 328 327 325 324 322 316 314 315 303 301 298 294 294 291 284
330 342 343 338 341 343 336 341 347 346 336 330 334 332 317 313 307 301 298 296 293 292
305 338 349 340 349 355 349 357 3 356 348 344 345 343 337 329 326 319 313 310 302 297
275 307 325 340 353 1 0 0 3 358 355 359 8 4 355 353 350 346 346 349 350 330
276 288 307 297 336 6 3 2 0 359 8 23 22 32 27 33 44 45 42 38 37 24
277 282 294 307 299 305 334 355 3 11 30 32 28 42 39 43 38 45 43 40 44 38
274 277 288 291 297 311 294 305 320 346 4 3 20 36 36 37 35 31 33 42 42 40